[[{"header":{"parameterUnit":"m.s-1","parameterCategory":1,"la1":30.2991,"la2":30.254,"lo1":-89.0895,"lo2":-89.0444,"dy":0.0017,"dx":0.0017,"nx":28,"ny":28,"refTime":"2024-06-17T03:00:00:Z","depth":0,"parameterNumber":2,"parameterNumberName":"U-component_of_WINDS"},"data":[0,0,0,0,0,0,0,0,0,0,0,0,0,0,0,0,0,0,0,0,0,0,0,0,0,0,0,0,0,0,0,0,0,0,0,0,0,0,0,0,0,0,0,0,0,0,0,0,0,0,0,0,0,0,0,0,0,0,-4.4288,-4.4288,0,-4.4273,-4.4273,-4.4273,-4.4025,-4.4019,-4.4013,-4.4007,-4.3999,-4.4005,-4.401,0,0,0,0,0,0,0,0,0,0,0,0,0,-4.4109,-4.4113,-4.4288,-4.4288,-4.4288,-4.4273,-4.4273,-4.4273,-4.4026,-4.4019,-4.4011,-4.4004,-4.3997,-4.4004,-4.4011,0,0,0,0,0,0,0,0,0,0,0,0,0,-4.415,-4.4115,-4.4288,-4.4163,-4.4151,-4.4273,-4.4273,-4.4273,-4.4028,-4.4018,-4.4009,-4.4,-4.3995,-4.4003,-4.4012,-4.4255,0,0,-4.4038,-4.4041,0,0,0,0,0,0,0,0,-4.4148,-4.4157,-4.4181,-4.4172,-4.4159,-4.4141,-4.4206,-4.4267,-4.403,-4.4075,-4.4006,-4.3995,-4.4055,-4.4058,-4.4076,-4.4254,-4.4254,-4.4039,-4.4044,-4.4047,-4.405,0,0,0,0,0,0,0,-4.4145,-4.4156,-4.4282,-4.4182,-4.4169,-4.4109,-4.4104,-4.4217,-4.4119,-4.407,-4.4052,-4.4054,-4.4047,-4.4068,-4.4074,-4.4254,-4.4038,-4.4046,-4.4051,-4.4055,-4.4631,-4.464,0,0,0,0,0,0,-4.4159,-4.4155,-4.4283,-4.4282,-4.413,-4.412,-4.4115,-4.4157,-4.4117,-4.4101,-4.4062,-4.4042,-4.4058,-4.4064,-4.4073,-4.4354,-4.4047,-4.4055,-4.406,-4.4621,-4.4633,-4.4644,0,0,0,0,0,0,-4.4156,-4.4173,-4.4283,-4.4214,-4.4223,-4.4133,-4.4182,-4.4161,-4.4182,-4.411,-4.4092,-4.4102,-4.4051,-4.4061,-4.4211,-4.4351,-4.4059,-4.4067,-4.4609,-4.4624,-4.4638,-4.4921,0,0,0,0,0,0,-4.4152,-4.4173,-4.4263,-4.4217,-4.4228,-4.4421,-4.4191,-4.4168,-4.4197,-4.4171,-4.4142,-4.4129,-4.4044,-4.4199,-4.4219,-4.4357,-4.4074,-4.4596,-4.4616,-4.4634,-4.4899,-4.4944,-4.4983,0,0,0,0,0,-4.4146,-4.4345,-4.4269,-4.4286,-4.4338,-4.4429,-4.4435,-4.4332,-4.4209,-4.43,-4.4253,-4.413,-4.4332,-4.4217,-4.4237,-4.438,-4.4586,-4.461,-4.4632,-4.488,-4.4935,-4.4982,0,0,0,0,0,0,-4.4413,-4.4337,-4.4252,-4.4441,-4.4444,-4.4387,-4.4499,-4.4394,-4.4433,-4.4408,-4.428,-4.4275,-4.4446,-4.4427,-4.43,-4.4613,-4.4437,-4.4466,-4.4619,-4.4671,-4.4712,-4.4714,-4.4081,0,0,0,0,0,-4.4494,-4.4572,-4.4502,-4.4676,-4.4681,-4.4591,-4.4626,-4.4546,-4.4544,-4.4545,-4.4508,-4.4513,-4.4577,-4.4622,-4.4678,-4.4894,-4.4885,-4.5002,-4.5045,-4.5079,-4.5106,-4.5219,-4.5271,-4.4719,-4.4719,-4.4718,0,0,-4.4662,-4.463,-4.4688,-4.4729,-4.4721,-4.4806,-4.4593,-4.4693,-4.4756,-4.456,-4.4699,-4.4673,-4.467,-4.4854,-4.4934,-4.4844,-4.5256,-4.5108,-4.5137,-4.5144,-4.5248,-4.5301,-4.5347,-4.4735,-4.4732,-4.4729,0,0,-4.5012,-4.4995,-4.5138,-4.5134,-4.5123,-4.5061,-4.5096,-4.5055,-4.503,-4.5166,-4.5021,-4.5095,-4.5208,-4.5212,-4.5229,-4.5578,-4.5467,-4.56,-4.582,-4.5932,-4.5976,-4.6014,-4.614,-4.6186,-4.5626,-4.5627,-4.5627,0,-4.5223,-4.5344,-4.5226,-4.5334,-4.5357,-4.5181,-4.5326,-4.5328,-4.5338,-4.5359,-4.5257,-4.5395,-4.538,-4.5563,-4.5648,-4.5668,-4.5704,-4.5604,-4.5979,-4.6016,-4.6049,-4.6168,-4.6216,-4.5643,-4.5641,-4.564,-4.5638,0,-4.5604,-4.5691,-4.5808,-4.5819,-4.5854,-4.5981,-4.5884,-4.5934,-4.5851,-4.5801,-4.5942,-4.5918,-4.5965,-4.6002,-4.5923,-4.6174,-4.6119,-4.6001,-4.5822,-4.612,-4.623,-4.6274,-4.5667,-4.5661,-4.5656,-4.5652,0,0,-4.6125,-4.6066,-4.6112,-4.6114,-4.6089,-4.6154,-4.6273,-4.6316,-4.6363,-4.6375,-4.6473,-4.6572,-4.6461,-4.648,-4.6399,-4.6498,-4.6777,-4.6366,-4.6364,-4.6445,-4.7054,-4.7145,-4.7199,-4.6702,-4.671,-4.6716,-4.7054,0,-4.6464,-4.6661,-4.6557,-4.677,-4.6848,-4.6681,-4.6784,-4.6782,-4.6737,-4.6799,-4.675,-4.6823,-4.6671,-4.6681,-4.6771,-4.6725,-4.6898,-4.6698,-4.6794,-4.6798,-4.6801,-4.7256,-4.7352,-4.7672,-4.7096,-4.7103,-4.7109,0,-4.6886,-4.6913,-4.7133,-4.7091,-4.712,-4.7215,-4.7246,-4.7306,-4.73,-4.726,-4.7281,-4.7177,-4.7292,-4.7114,-4.7271,-4.7138,-4.717,-4.7154,-4.7163,-4.717,-4.6973,-4.7276,-4.7772,-4.7821,-4.7175,-4.7169,-4.7165,0,-4.7245,-4.7337,-4.7479,-4.7486,-4.7442,-4.7512,-4.7498,-4.748,-4.7513,-4.754,-4.756,-4.7602,-4.7626,-4.7662,-4.7572,-4.745,-4.7743,-4.7557,-4.7715,-4.7718,-4.7786,-4.7784,-4.8296,-4.7806,-4.7805,-4.7804,-4.7803,0,-4.7635,-4.7777,-4.764,-4.7728,-4.7882,-4.7761,-4.7917,-4.7884,-4.7871,-4.7951,-4.7809,-4.7888,-4.7763,-4.783,-4.7761,-4.7903,-4.7914,-4.7887,-4.7868,-4.7901,-4.7905,-4.7922,-4.7898,-4.7816,-4.7814,-4.7811,-4.7809,0,-4.8063,-4.7977,-4.8122,-4.8066,-4.8056,-4.8172,-4.8125,-4.8205,-4.815,-4.8253,-4.8271,-4.8185,-4.8257,-4.8169,-4.8234,-4.8187,-4.838,-4.8327,-4.8383,-4.8368,-4.8531,-4.8518,-4.9074,-4.9142,-4.8607,-4.8613,-4.8617,0,-4.8319,-4.8423,-4.8378,-4.842,-4.8413,-4.8483,-4.8514,-4.8399,-4.8438,-4.8437,-4.8519,-4.8577,-4.8618,-4.874,-4.8685,-4.8734,-4.8681,-4.8872,-4.8688,-4.8718,-4.8685,-4.8681,-4.8691,-4.8911,-4.8918,-4.8923,-4.8927,0,-4.8782,-4.8733,-4.8783,-4.8818,-4.8858,-4.8881,-4.8893,-4.8936,-4.8816,-4.8868,-4.8937,-4.8969,-4.9032,-4.9093,-4.9126,-4.9112,-4.9002,-4.8985,-4.9025,-4.9061,-4.909,-4.9077,-4.8487,-4.8974,-4.8969,-4.8966,-4.8963,-4.8961,-4.9132,-4.9217,-4.9198,-4.9257,-4.9254,-4.9268,-4.934,-4.9293,-4.9348,-4.9389,-4.9318,-4.9407,-4.9396,-4.9428,-4.9427,-4.9496,-4.9414,-4.9471,-4.9485,-4.9502,-4.9527,-4.9077,-4.9501,-4.95,-4.9499,-4.9497,-4.9496,0,-4.9589,-4.9567,-4.9623,-4.9643,-4.9691,-4.9577,-4.9585,-4.9633,-4.9711,-4.971,-4.9752,-4.9832,-4.989,-4.9839,-4.9886,-4.9951,-4.9902,-4.9968,-4.9963,-4.9962,-4.9597,-4.9559,-5.0007,-5.0007,-5.0007,-5.0007,-5.0007,-5.0006,-4.9832,-4.9969,-4.9919,-5.0053,-5.003,-5.0114,-5.0128,-5.0141,-5.0138,-5.0233,-5.0279,-5.0244,-5.0223,-5.0268,-5.0316,-5.0299,-5.0325,-5.041,-5.0376,-5.0037,-4.9987,-4.9939,-4.9903,-5.0416,-5.0416,-5.0734,-5.0737,-5.0739]},{"header":{"parameterUnit":"m.s-1","parameterCategory":1,"la1":30.2991,"la2":30.254,"lo1":-89.0895,"lo2":-89.0444,"dy":0.0017,"dx":0.0017,"nx":28,"ny":28,"refTime":"2024-06-17T03:00:00:Z","depth":0,"parameterNumber":3,"parameterNumberName":"V-component_of_WINDS"},"data":[0,0,0,0,0,0,0,0,0,0,0,0,0,0,0,0,0,0,0,0,0,0,0,0,0,0,0,0,0,0,0,0,0,0,0,0,0,0,0,0,0,0,0,0,0,0,0,0,0,0,0,0,0,0,0,0,0,0,-2.3746,-2.3744,0,-2.3606,-2.3605,-2.3603,-2.3555,-2.3556,-2.3557,-2.3557,-2.3404,-2.34,-2.3395,0,0,0,0,0,0,0,0,0,0,0,0,0,-2.3959,-2.3956,-2.3746,-2.3744,-2.3742,-2.3607,-2.3605,-2.3603,-2.3555,-2.3556,-2.3557,-2.3557,-2.3406,-2.34,-2.3395,0,0,0,0,0,0,0,0,0,0,0,0,0,-2.3848,-2.3954,-2.3746,-2.3703,-2.3697,-2.3607,-2.3605,-2.3602,-2.3555,-2.3556,-2.3557,-2.3558,-2.3408,-2.3401,-2.3394,-2.3334,0,0,-2.3373,-2.337,0,0,0,0,0,0,0,0,-2.3854,-2.384,-2.3711,-2.3706,-2.37,-2.3599,-2.3624,-2.3512,-2.3555,-2.3609,-2.3557,-2.3558,-2.3468,-2.3456,-2.3428,-2.3327,-2.332,-2.3372,-2.3368,-2.3365,-2.3363,0,0,0,0,0,0,0,-2.3862,-2.3845,-2.369,-2.3709,-2.3702,-2.3686,-2.3671,-2.3602,-2.3535,-2.3604,-2.3601,-2.3585,-2.3465,-2.3434,-2.3424,-2.3318,-2.3373,-2.3366,-2.3362,-2.3359,-2.3154,-2.3153,0,0,0,0,0,0,-2.3878,-2.3852,-2.3695,-2.3686,-2.3781,-2.3682,-2.3665,-2.363,-2.3536,-2.3522,-2.3585,-2.3584,-2.3446,-2.3432,-2.3418,-2.3338,-2.3365,-2.3359,-2.3355,-2.3155,-2.3154,-2.3152,0,0,0,0,0,0,-2.3883,-2.3865,-2.37,-2.3768,-2.3746,-2.3677,-2.3639,-2.3627,-2.3597,-2.3521,-2.3507,-2.3567,-2.3446,-2.3428,-2.3355,-2.3332,-2.3356,-2.3349,-2.3157,-2.3155,-2.3153,-2.3179,0,0,0,0,0,0,-2.389,-2.3867,-2.3847,-2.3768,-2.3743,-2.3643,-2.3637,-2.3624,-2.3586,-2.3584,-2.35,-2.3487,-2.3445,-2.3365,-2.3348,-2.3323,-2.3344,-2.3159,-2.3156,-2.3154,-2.3179,-2.3178,-2.3176,0,0,0,0,0,-2.3897,-2.3858,-2.3846,-2.3827,-2.3716,-2.3642,-2.3627,-2.3582,-2.3585,-2.3561,-2.3511,-2.349,-2.3338,-2.3358,-2.3338,-2.3311,-2.316,-2.3157,-2.3154,-2.318,-2.3178,-2.3176,0,0,0,0,0,0,-2.3933,-2.3847,-2.3833,-2.3768,-2.3713,-2.3634,-2.3604,-2.3582,-2.3523,-2.3523,-2.3466,-2.3448,-2.3378,-2.3337,-2.3361,-2.3244,-2.3247,-2.324,-2.3274,-2.3271,-2.327,-2.328,-2.3338,0,0,0,0,0,-2.3934,-2.3885,-2.3811,-2.376,-2.3734,-2.3674,-2.364,-2.361,-2.3549,-2.3525,-2.347,-2.3409,-2.3346,-2.3307,-2.3246,-2.3174,-2.3152,-2.3144,-2.3143,-2.3142,-2.3135,-2.3089,-2.3083,-2.3143,-2.3143,-2.3143,0,0,-2.3934,-2.3881,-2.3853,-2.3766,-2.372,-2.3666,-2.3654,-2.3598,-2.3556,-2.3515,-2.3443,-2.34,-2.3327,-2.3254,-2.3218,-2.3217,-2.3114,-2.3138,-2.3138,-2.3132,-2.3085,-2.308,-2.3075,-2.3141,-2.3141,-2.3141,0,0,-2.3907,-2.3864,-2.3815,-2.3769,-2.37,-2.366,-2.3648,-2.3572,-2.3543,-2.347,-2.3437,-2.3383,-2.3279,-2.3227,-2.3188,-2.3137,-2.3112,-2.3118,-2.3109,-2.3064,-2.306,-2.3055,-2.3033,-2.3026,-2.3112,-2.3112,-2.3112,0,-2.3915,-2.3836,-2.3792,-2.3737,-2.3697,-2.366,-2.3608,-2.3564,-2.3477,-2.3449,-2.345,-2.3315,-2.3264,-2.3175,-2.3163,-2.3133,-2.3113,-2.3127,-2.3065,-2.3059,-2.3054,-2.3032,-2.3025,-2.3113,-2.3113,-2.3113,-2.3113,0,-2.3847,-2.3792,-2.376,-2.368,-2.3637,-2.3583,-2.3527,-2.3488,-2.346,-2.3418,-2.3341,-2.3279,-2.3202,-2.3179,-2.3152,-2.3084,-2.3085,-2.3077,-2.3077,-2.305,-2.3028,-2.302,-2.3114,-2.3114,-2.3114,-2.3114,0,0,-2.3839,-2.3734,-2.3723,-2.3684,-2.3603,-2.3558,-2.35,-2.3428,-2.3393,-2.3333,-2.328,-2.3191,-2.3181,-2.3136,-2.3102,-2.3063,-2.3021,-2.3057,-2.3055,-2.305,-2.2937,-2.2942,-2.2934,-2.3005,-2.3003,-2.3002,-2.2942,0,-2.3799,-2.3699,-2.3656,-2.3573,-2.3518,-2.348,-2.3429,-2.3371,-2.333,-2.3274,-2.3226,-2.3162,-2.3156,-2.3128,-2.3088,-2.3035,-2.2997,-2.3039,-2.295,-2.2948,-2.2967,-2.2923,-2.293,-2.2876,-2.2933,-2.2932,-2.2931,0,-2.374,-2.3682,-2.3594,-2.3516,-2.3492,-2.3447,-2.3375,-2.3324,-2.3255,-2.3227,-2.3175,-2.3142,-2.3075,-2.3082,-2.2985,-2.3014,-2.2975,-2.2942,-2.2939,-2.2927,-2.2936,-2.2906,-2.2858,-2.2849,-2.2918,-2.2919,-2.292,0,-2.3739,-2.3639,-2.3572,-2.354,-2.3449,-2.3417,-2.3377,-2.331,-2.3268,-2.3203,-2.3174,-2.3102,-2.3061,-2.3003,-2.2949,-2.296,-2.2856,-2.2859,-2.2826,-2.2827,-2.2804,-2.2806,-2.2746,-2.2784,-2.2784,-2.2784,-2.2785,0,-2.3698,-2.3645,-2.357,-2.3529,-2.3466,-2.3415,-2.3353,-2.3309,-2.3249,-2.3195,-2.3156,-2.3105,-2.3039,-2.2978,-2.2935,-2.2858,-2.2841,-2.2812,-2.2801,-2.2814,-2.2818,-2.2786,-2.2787,-2.2782,-2.2783,-2.2783,-2.2784,0,-2.3686,-2.3635,-2.3559,-2.3479,-2.3457,-2.3414,-2.3342,-2.3297,-2.3253,-2.3185,-2.3165,-2.3094,-2.302,-2.2961,-2.2864,-2.2834,-2.2752,-2.2741,-2.2776,-2.277,-2.2738,-2.2741,-2.2654,-2.2637,-2.269,-2.269,-2.2689,0,-2.3663,-2.3621,-2.3535,-2.3498,-2.3458,-2.3398,-2.3355,-2.3301,-2.3256,-2.3173,-2.3137,-2.3061,-2.2997,-2.2878,-2.2815,-2.2739,-2.2723,-2.2698,-2.2712,-2.2725,-2.2718,-2.272,-2.2713,-2.2696,-2.2696,-2.2695,-2.2695,0,-2.3625,-2.36,-2.3541,-2.3472,-2.3421,-2.3363,-2.3304,-2.3274,-2.3208,-2.3159,-2.3084,-2.3034,-2.2934,-2.2856,-2.2773,-2.2726,-2.2697,-2.2692,-2.2679,-2.2691,-2.2711,-2.2695,-2.2769,-2.2693,-2.2694,-2.2694,-2.2694,-2.2694,-2.3604,-2.3563,-2.3496,-2.3429,-2.3379,-2.3324,-2.3277,-2.3226,-2.3164,-2.308,-2.3051,-2.2972,-2.2898,-2.2784,-2.2736,-2.267,-2.2668,-2.2651,-2.2646,-2.2642,-2.2641,-2.2724,-2.2655,-2.2655,-2.2655,-2.2655,-2.2655,0,-2.3561,-2.3515,-2.3455,-2.3373,-2.3319,-2.33,-2.3232,-2.3187,-2.3119,-2.3055,-2.2992,-2.2903,-2.2826,-2.2756,-2.2675,-2.2635,-2.2619,-2.2615,-2.2615,-2.2604,-2.265,-2.2667,-2.2628,-2.2628,-2.2628,-2.2628,-2.2628,-2.2628,-2.3532,-2.3461,-2.3428,-2.3329,-2.3282,-2.3207,-2.3169,-2.3115,-2.3063,-2.2966,-2.2903,-2.2858,-2.2789,-2.2702,-2.2629,-2.2609,-2.2579,-2.2578,-2.2554,-2.2598,-2.2601,-2.2605,-2.262,-2.2573,-2.2572,-2.2513,-2.2513,-2.2513]}]]